Regional Weather Roundup
Issued by NWS

Home | Current Version | Previous Version | Graphics & Text | Print | Product List | Glossary On
Versions: 1 2 3 4 5 6 7 8 9 10 11 12 13 14 15 16 17 18 19 20 21 22 23 24 25 26 27 28 29 30 31 32 33 34 35 36 37 38 39 40 41 42 43 44 45 46 47 48 49 50
000
ASUS45 KBOU 242307
RWRCO

WEATHER ROUNDUP FOR COLORADO
NATIONAL WEATHER SERVICE DENVER/BOULDER CO
500 PM MDT WED MAY 24 2017

NOTE: "FAIR" INDICATES FEW OR NO CLOUDS BELOW 12000 FEET WITH NO
SIGNIFICANT WEATHER AND/OR OBSTRUCTIONS TO VISIBILITY.

COZ001>005-013-030-031-250000-
...NORTHWEST COLORADO...

CITY           SKY/WX    TMP DP  RH WIND       PRES   REMARKS
CRAIG          FAIR      77  27  15 W29       29.72F
HAYDEN         FAIR      73  28  19 W29       29.74F
MEEKER         FAIR      77  27  15 W18G30    29.74F
RABBIT EARS PA FAIR      54  28  37 W13G24    30.00F
STEAMBOAT SPGS FAIR      73  33  23 W15G22    29.77F
WALDEN           N/A     68  28  22 SW22G35   29.86F
$$

COZ006>008-011-250000-
...WEST CENTRAL VALLEYS...

CITY           SKY/WX    TMP DP  RH WIND       PRES   REMARKS
GRAND JUNCTION FAIR      87  28  12 W15G21    29.67F
MONTROSE       FAIR      80  27  14 SW16G26   29.76F
EAGLE          SUNNY     75  27  16 W24G33    29.80F
RIFLE          FAIR      83  25  12 W18G32    29.72F
DELTA          FAIR      89  24   9 W9G21     29.71F
NUCLA          FAIR      82  18   9 W10G25    29.81F
$$

COZ017>023-064>068-250000-
...SOUTHWEST COLORADO...

CITY           SKY/WX    TMP DP  RH WIND       PRES   REMARKS
DURANGO        PTSUNNY   78  23  13 W20G31    29.88F
CORTEZ         FAIR      82  25  12 W13G22    29.83F
PAGOSA SPRINGS FAIR      74  16  11 SW22G36   29.93S
TELLURIDE      CLOUDY    66  26  22 SW14G24   30.06S
WOLF CREEK PAS FAIR      50  25  37 SW14G26   30.25F
$$

COZ009-010-012-014-032>034-037-058>063-250000-
...CENTRAL COLORADO...

CITY           SKY/WX    TMP DP  RH WIND       PRES   REMARKS
ASPEN          PTSUNNY   68  29  23 S12       29.88F
BUENA VISTA    FAIR      71  16  12 W21G38    29.89S
COPPER MTN     PTSUNNY   50  21  32 W26G33    30.14F
BERTHOUD PASS  FAIR      41  32  70 W38G53    30.12F
COTTONWOOD PAS FAIR      68  12  11 W14G23    30.02S
GUNNISON       FAIR      70  28  21 W18G28    29.89F
KREMMLING      PTSUNNY   77  32  19 W17G28    29.82F
LEADVILLE      PTSUNNY   58  23  26 W17G26    30.00F
MONARCH PASS   CLOUDY    46  23  39 W40G52    30.26S
SALIDA         FAIR      75  21  13 W17G31    29.93F
SUNLIGHT       PTSUNNY   52  25  35 SW13G26   30.10F
WILKERSON PASS PTSUNNY   54  21  28 SW17G26   30.11F
$$

COZ069>075-250000-
...SAN LUIS VALLEY/SANGRE DE CRISTO MOUNTAINS...

CITY           SKY/WX    TMP DP  RH WIND       PRES   REMARKS
ALAMOSA        FAIR      74  28  18 SW8       29.87F
DEL NORTE      PTSUNNY   72  29  20 W12G21    29.90F
LA VETA PASS   FAIR      63  27  25 MISG      30.14F
SAGUACHE       PTSUNNY   72  27  18 NW21G29   29.90F
$$

COZ035-036-038>040-250000-
...NORTHERN COLORADO FRONT RANGE...

CITY           SKY/WX    TMP DP  RH WIND       PRES   REMARKS
DENVER INTL AP FAIR      83  32  16 NW12G25   29.62F
DMNS CITY PARK   N/A     82  29  14 W8G20     29.62F
AURORA         MOSUNNY   82  33  16 W13G25    29.65F
FRONT RANGE AP MOSUNNY   84  32  15 W12G23    29.65
ERIE MUNI ARPT FAIR      83  30  14 W17G28    29.61F
BOULDER MUN AP FAIR      82  34  17 SW10G22   29.61F
CENTENNIAL     FAIR      80  25  13 W17G23    29.66F
BROOMFIELD     MOSUNNY   82  32  16 W18       29.65F
FORT COLLINS   FAIR      84  33  16 NW17      29.59F
LONGMONT       FAIR      81  30  15 W7G20     29.61F
$$

COZ041-046-047-076>085-087-088-250000-
...PIKES PEAK/PALMER DIVIDE AND SOUTHERN FOOTHILLS...

CITY           SKY/WX    TMP DP  RH WIND       PRES   REMARKS
COLO. SPRINGS  FAIR      79  37  22 VRB3      29.71F
A. F. ACADEMY  FAIR      80  23  12 NW16G25   29.72F
SCHRIEVER AFB  FAIR      77  37  23 SE16      29.72F
CHEYENNE MTN   FAIR      74  36  24 S10       29.71F
ELLICOTT       FAIR     N/A N/A N/A S21       29.70F
FALCON         FAIR      80  20  11 W13G25    29.76F
FORT CARSON    NOT AVBL
LIMON          FAIR      78  39  24 S14       29.66F
MONUMENT HILL  FAIR      73  28  19 NW15G21   29.77F
CANON CITY     NOT AVBL
WALSENBURG     FAIR      84  30  14 NW20G29   29.70F
TRINIDAD       FAIR      81  33  17 CALM      29.71F
$$

COZ042>045-048>051-090-091-250000-
...NORTHEAST COLORADO...

CITY           SKY/WX    TMP DP  RH WIND       PRES   REMARKS
GREELEY ARPT   FAIR      84  37  18 W10       29.58F
AKRON          FAIR      80  40  23 SW15G21   29.60F
BURLINGTON     FAIR      76  47  35 S14G22    29.64F
WRAY           FAIR      82  37  20 S9G18     29.56F
YUMA           FAIR      81  43  26 SW9       29.57F
STERLING       FAIR      82  43  24 W12       29.53S
HOLYOKE        NOT AVBL
FORT MORGAN    FAIR      83  33  16 SW13      29.59F
$$

COZ086-089-092>099-250000-
...SOUTHEAST COLORADO...

CITY           SKY/WX    TMP DP  RH WIND       PRES   REMARKS
PUEBLO         FAIR      87  37  17 SW8       29.58F
LA JUNTA       FAIR      85  39  19 S14       29.61F
LAMAR          FAIR      84  38  19 S13       29.60F
SPRINGFIELD      N/A     79  41  25 S8G18     29.67F
$$



USA.gov is the U.S. government's official web portal to all federal, state and local government web resources and services.